#timestamp,LO_Frequency,Hit,StdDev 
1516546815.5,286046024.9,N
1516546835.3,286046024.2,N
1516546855.2,286046024.1,N
1516546875.9,286046024.5,N
1516546895.7,286046024.8,N
1516546915.5,286046024.3,N
1516546935.4,286046024.3,N
1516546955.2,286046024.7,N
1516546975.0,286046024.9,N
1516546976.0,286046024.9,Y
1516546995.8,286046952.9,P
1516547015.6,286046952.5,N
1516547035.4,286046950.2,N
1516547055.3,286046950.2,N
1516547075.1,286046952.6,N
1516547095.8,286046953.0,N
1516547115.7,286046950.1,N
1516547135.5,286046950.5,N
1516547155.3,286046952.7,N
1516547175.2,286046952.6,N
1516547195.9,286046950.1,N
1516547215.7,286046950.1,N
1516547235.6,286046952.9,N
1516547255.4,286046952.9,N
1516547275.2,286046953.2,N
1516547295.0,286046950.5,N
1516547296.0,286046950.5,N
1516547315.8,286046953.0,N
1516547335.6,286046953.0,N
1516547355.4,286046953.2,N
1516547375.3,286046953.2,N
1516547395.1,286046952.9,N
1516547415.8,286046952.9,N
1516547435.7,286046950.1,N
1516547455.5,286046950.2,N
1516547475.3,286046952.9,N
1516547495.2,286046953.0,N
1516547515.9,286046950.5,N
1516547535.7,286046950.5,N
1516547555.6,286046952.7,N
1516547575.4,286046952.7,Y
1516547595.2,286046998.5,P
1516547615.1,286046998.6,N
1516547616.0,286046998.6,N
1516547635.8,286047001.0,N
1516547655.6,286047000.8,N
1516547675.5,286046998.6,N
1516547695.3,286046998.6,N
1516547715.1,286047001.1,N
1516547735.8,286046991.7,N
1516547755.7,286046991.8,N
1516547775.5,286046991.8,N
1516547795.3,286046991.7,N
1516547815.2,286046991.8,N
1516547835.9,286046994.7,N
1516547855.7,286046991.7,N
1516547875.6,286046990.5,N
1516547895.4,286046989.7,N
1516547915.2,286046988.7,N
1516547935.1,286046970.8,N
1516547936.0,286046970.8,N
1516547955.8,286046435.4,Y
1516547975.6,286047302.6,P
1516547995.5,286046978.6,N
1516548015.3,286046997.1,N
1516548035.1,286046997.4,N
1516548055.8,286047106.3,N
1516548075.7,286046996.9,N
1516548095.5,286046996.7,N
1516548115.3,286046997.4,N
1516548135.2,286046997.3,N
1516548155.9,286046997.2,N
1516548175.7,286047099.7,N
1516548195.6,286046997.0,N
1516548215.4,286046997.3,N
1516548235.2,286046997.0,N
1516548255.1,286046996.9,N
1516548256.0,286046996.9,N
1516548275.8,286046997.3,N
1516548295.6,286046998.9,N
1516548315.5,286047049.4,N
1516548335.3,286047093.0,N
1516548355.1,286047090.7,N
1516548375.8,286046932.0,N
1516548395.7,286047179.3,N
1516548415.5,286047008.4,N
1516548435.3,286046960.5,N
1516548455.2,286047091.1,N
1516548475.9,286047083.5,N
1516548495.7,286047082.2,N
1516548515.6,286047081.4,N
1516548535.4,286047082.4,N
1516548555.2,286047080.6,N
1516548575.1,286047010.7,N
1516548576.0,286047010.7,N
1516548595.8,286047010.0,N
1516548615.6,286047076.8,N
1516548635.5,286047176.7,Y
1516548655.3,286047142.5,P
1516548675.1,286046799.9,P
1516548695.8,286046914.9,N
1516548715.7,286046916.4,N
1516548735.5,286046976.4,N
1516548755.3,286047036.4,N
1516548775.2,286046912.6,N
1516548795.0,286047030.5,N
1516548795.9,286047030.5,N
1516548815.7,286046908.5,N
1516548835.6,286046977.0,N
1516548855.4,286046909.7,N
1516548875.2,286046976.2,N
1516548895.1,286046976.6,N
1516548896.0,286046976.6,N
1516548915.8,286046976.5,N
1516548935.6,286046976.3,N
1516548955.5,286046975.7,N
1516548975.3,286046976.0,N
1516548995.1,286046975.9,N
1516549015.9,286046976.2,N
1516549035.7,286046978.3,N
1516549055.5,286046976.1,N
1516549075.3,286046975.8,N
1516549095.2,286046978.8,N
1516549115.0,286046978.2,N
1516549115.9,286046978.2,N
1516549135.7,286046978.8,N
1516549155.6,286046978.7,N
1516549175.4,286046978.4,N
1516549195.2,286046978.0,N
1516549215.1,286046978.3,N
1516549216.0,286046978.3,N
1516549235.8,286046978.3,N
1516549255.6,286046978.3,N
1516549275.5,286046977.5,N
1516549295.3,286046978.5,N
1516549315.1,286046978.5,N
1516549335.9,286046978.5,N
1516549355.7,286046977.8,N
1516549375.5,286046977.9,N
1516549395.3,286046978.1,N
1516549415.2,286046978.0,Y
1516549435.0,286046982.0,P
1516549435.9,286046982.0,P
1516549455.7,286046929.7,P
1516549475.6,286046931.9,Y
1516549495.4,286046964.3,P
1516549515.2,286046964.3,P
1516549535.1,286046971.1,P
1516549536.0,286046971.1,Y
1516549555.8,286047005.3,P
1516549575.7,286047005.2,N
1516549595.5,286047004.8,N
1516549615.3,286047005.0,N
1516549635.1,286047004.9,N
1516549655.9,286045973.0,Y
1516549675.7,286046326.8,P
1516549695.5,286046327.4,N
1516549715.4,286046381.3,N
1516549735.2,286046770.1,N
1516549755.0,286046539.1,N
1516549755.9,286046539.1,N
1516549775.8,286045981.6,Y
1516549795.6,286046952.7,P
1516549815.4,286046637.8,N
1516549835.3,286046636.7,N
1516549855.1,286046634.1,N
1516549875.8,286047204.0,N
1516549895.7,286046632.1,N
1516549915.5,286046632.8,N
1516549935.3,286046503.3,N
1516549955.2,286047229.4,N
1516549975.9,286047229.4,N
1516549995.7,286047229.4,N
1516550015.6,286047229.7,N
1516550035.4,286047229.3,N
1516550055.2,286047229.2,N
1516550075.0,286047229.1,N
1516550075.9,286047229.1,N
1516550095.8,286047184.5,N
1516550115.6,286047186.6,N
1516550135.4,286047182.5,N
1516550155.3,286047389.0,N
1516550175.1,286047343.5,N
1516550195.8,286047500.5,N
1516550215.7,286046756.9,N
1516550235.5,286047517.4,N
1516550255.3,286047517.1,N
1516550275.2,286047516.5,N
1516550295.9,286047519.6,N
1516550315.7,286047516.8,N
1516550335.5,286047516.9,N
1516550355.4,286047519.1,N
1516550375.2,286047519.3,N
1516550395.0,286047519.6,N
1516550395.9,286047519.6,N
